Dewpoint
43 42 41 39 39 39 39 39 37 38 40 43 45 45 46 46 47 47 49 49 49 50 51 51 51 50 49 49 49 50 51 52 52 53 53 53 52 54 55 56 58 59 61
42 41 39 38 38 39 39 37 36 39 42 44 43 43 43 42 42 42 42 45 46 47 48 49 48 48 48 47 47 48 48 49 50 50 51 53 53 52 52 53 55 57 58
41 40 38 37 38 38 38 36 38 41 43 43 41 40 39 38 38 39 39 38 39 43 44 45 45 46 46 47 47 46 45 46 48 49 50 50 51 51 51 52 52 52 56
40 39 37 36 38 38 36 35 38 41 42 41 40 39 38 36 36 36 37 37 36 36 40 42 42 43 44 45 46 47 48 48 48 47 48 47 48 48 50 50 52 52 52
40 38 36 36 37 37 35 35 36 41 40 39 38 37 37 36 36 35 35 36 34 34 34 37 38 40 41 43 44 46 46 46 47 47 47 46 46 47 48 48 49 50 51
38 37 36 35 36 35 33 34 38 39 39 38 37 37 37 36 35 35 34 33 32 32 33 33 33 35 38 40 41 44 45 46 46 45 46 46 45 46 46 47 47 49 49
37 36 35 34 34 34 33 36 38 38 37 36 33 32 33 35 36 34 33 33 32 32 32 32 32 34 34 36 38 39 42 43 44 44 43 43 44 45 45 46 46 46 46
36 35 34 33 33 34 33 35 35 34 34 34 33 31 29 31 33 33 33 32 32 32 31 31 31 33 33 34 34 36 37 39 41 41 41 42 42 42 43 44 45 45 46
36 35 34 32 32 33 32 32 34 33 32 31 33 34 32 30 30 32 32 32 32 32 32 34 34 34 35 34 34 33 33 34 36 37 38 39 40 41 41 42 43 44 44
35 35 33 32 32 32 31 31 31 32 32 31 30 30 31 32 28 28 32 33 31 30 31 29 28 32 34 36 33 34 32 31 32 34 35 35 37 38 39 40 41 42 43
33 34 33 32 31 31 31 29 30 31 31 30 29 28 28 28 29 28 27 32 31 29 29 31 29 28 30 33 35 32 30 30 30 30 31 32 33 34 37 38 39 41 42
31 32 31 31 31 30 29 29 29 30 30 30 29 28 27 25 27 27 27 29 29 30 27 26 26 26 28 30 34 32 29 27 28 29 29 29 30 31 32 35 38 38 39
29 29 30 31 31 31 30 29 28 29 29 28 28 28 28 28 28 28 28 28 29 32 31 27 24 24 25 29 33 31 28 26 27 27 27 27 27 28 29 30 33 36 36
28 28 29 30 31 31 30 29 28 28 28 28 28 28 28 28 29 29 28 28 28 28 27 23 25 21 23 27 31 29 27 27 26 26 26 26 26 26 27 27 28 29 33
27 28 28 30 30 30 29 29 28 27 28 28 28 27 27 27 27 27 28 27 26 26 23 23 16 19 19 22 28 27 28 28 26 26 25 25 25 25 25 25 26 27 29
27 27 28 29 29 28 28 28 27 27 27 26 26 25 25 26 26 26 26 26 26 25 22 21 14 18 17 16 22 24 25 25 26 25 23 25 25 25 24 24 24 25 26
27 27 27 28 27 26 26 26 26 26 25 25 25 24 24 25 25 25 25 25 25 24 22 18 14 15 14 16 17 20 19 18 23 24 25 25 25 23 23 23 23 24 25
27 27 27 27 26 26 25 25 25 25 24 23 22 22 22 22 23 23 22 21 22 23 23 13 12 12 14 14 16 18 16 10 11 22 23 24 24 22 22 22 22 22 23
27 27 26 26 26 25 24 25 25 24 22 20 18 18 20 21 20 21 19 16 14 13 14 9 11 13 14 14 14 15 17 18 10 17 18 24 23 23 22 21 21 20 22
26 25 25 25 25 24 23 23 22 19 13 10 14 16 15 16 17 16 13 11 13 12 13 12 12 11 9 11 13 12 11 15 14 12 14 21 22 23 22 20 20 19 19
25 24 24 24 24 23 21 20 18 12 10 10 12 14 14 17 18 14 10 10 11 12 13 13 12 12 11 11 11 10 11 12 16 14 13 15 18 18 21 21 18 18 17
24 24 24 24 23 20 20 19 14 15 16 16 19 21 20 18 16 16 16 16 15 14 14 14 13 13 14 12 12 12 12 12 11 14 11 9 14 15 18 20 16 15 15
26 25 24 23 22 19 18 17 17 19 20 21 21 20 19 20 20 19 19 19 18 18 17 16 15 15 16 17 16 15 14 14 14 15 13 8 12 12 17 18 15 14 13
26 26 26 25 23 20 19 20 20 20 19 18 18 17 18 19 19 18 18 19 19 20 19 18 17 17 17 16 11 12 14 13 15 17 14 8 11 12 14 14 13 13 11
26 26 26 26 23 21 21 22 20 16 14 14 16 17 16 18 19 18 15 15 18 23 21 18 16 17 16 14 13 9 9 8 10 12 14 13 11 11 13 13 11 11 11
25 26 26 25 26 25 23 23 19 15 12 12 15 18 18 18 19 16 15 15 17 17 15 11 9 10 8 9 10 9 10 9 11 10 15 13 11 11 9 13 14 10 10
Wind_Speed
13 12 12 10 10 9 11 12 13 15 17 18 18 18 18 17 17 15 16 23 23 21 22 20 20 18 17 19 19 20 21 20 19 19 19 19 19 20 19 20 19 18 19
15 13 12 11 11 10 9 11 14 16 16 17 19 18 17 17 17 16 13 15 22 23 22 22 20 19 19 18 18 18 19 21 21 20 21 21 19 20 21 21 22 19 17
14 13 13 11 11 10 12 14 15 16 18 18 20 17 17 17 17 16 14 13 13 20 21 21 21 22 21 21 20 19 18 18 19 20 22 23 23 23 22 22 24 21 21
14 13 12 10 11 11 13 15 15 17 17 17 16 15 15 16 16 15 15 13 13 12 15 20 22 22 22 23 22 22 22 22 20 21 21 22 23 23 23 21 22 23 21
14 14 13 11 12 13 12 13 12 15 19 18 17 15 14 14 13 14 15 14 14 14 12 16 18 21 23 24 24 23 23 23 25 25 24 23 23 24 22 22 22 21 22
15 14 13 12 12 14 12 13 18 14 16 18 19 17 14 13 13 13 12 12 14 15 13 13 12 13 21 23 24 25 24 25 26 26 26 25 25 24 24 24 23 23 23
16 15 13 13 12 13 13 14 15 21 16 15 14 15 15 14 14 12 11 11 13 15 13 13 12 11 13 21 24 24 25 24 23 23 24 25 26 26 26 25 24 22 22
15 14 14 13 13 15 14 14 12 11 8 2 6 6 6 6 12 11 10 12 13 9 12 14 13 14 13 13 19 23 24 24 24 24 24 24 24 25 26 26 26 25 24
12 13 13 12 12 12 14 12 13 11 12 3 3 5 5 5 5 3 10 13 12 11 12 11 12 13 14 13 12 16 23 23 23 24 24 24 24 25 25 25 26 27 26
15 15 14 13 12 11 12 9 9 8 9 10 5 5 5 6 6 5 3 8 10 12 12 12 13 12 11 9 12 18 21 22 22 23 24 24 25 25 25 26 26 27 28
14 14 15 14 13 11 10 10 9 9 5 9 6 5 3 5 6 5 6 6 9 10 11 10 10 10 11 12 11 15 18 20 22 23 24 25 25 25 26 26 26 27 28
13 13 14 15 14 13 12 12 11 9 8 8 7 6 6 4 6 5 5 8 9 6 8 10 11 11 12 12 13 15 16 19 19 21 23 25 26 26 26 27 27 27 29
13 13 14 15 14 14 14 14 13 12 11 12 11 10 8 5 5 5 11 8 6 4 3 8 11 11 11 11 11 14 17 15 18 19 22 23 25 26 27 27 27 28 28
16 14 14 14 14 15 15 15 14 13 13 14 15 13 12 10 8 6 8 12 7 4 3 3 5 12 9 10 12 14 12 16 17 18 21 22 23 25 26 27 28 27 29
14 15 15 15 15 15 15 15 15 15 15 14 13 12 11 10 11 11 9 5 8 6 2 3 4 8 8 7 10 10 10 14 16 17 19 21 21 24 25 26 27 27 28
15 16 16 16 15 15 14 15 14 13 15 11 11 13 11 9 11 11 10 8 5 5 6 1 4 3 6 6 12 10 11 14 15 16 17 20 21 22 24 25 26 27 27
17 17 17 17 15 15 14 16 14 14 15 13 11 13 11 9 11 10 9 8 9 7 9 3 3 3 7 9 10 10 10 12 11 17 16 16 19 20 23 24 25 26 28
15 16 15 17 15 14 15 16 14 13 16 14 12 13 11 9 10 9 9 10 9 5 5 8 3 8 8 9 8 8 9 10 11 13 15 14 16 19 21 23 25 26 26
17 15 16 16 16 15 15 14 14 13 13 13 12 13 12 12 12 10 10 11 9 8 9 9 6 6 5 8 5 4 5 6 12 12 14 14 16 17 19 22 24 25 26
20 19 18 16 16 15 15 15 15 15 15 14 13 14 14 15 16 14 13 13 12 14 13 14 11 9 6 3 3 6 7 5 9 11 12 13 14 16 20 21 23 25 25
16 18 18 15 15 15 13 16 16 18 19 18 16 15 14 14 14 11 13 13 16 15 13 14 12 8 8 6 7 6 5 5 0 10 6 9 9 11 14 16 20 23 24
15 17 16 15 16 10 18 21 20 18 15 16 17 11 13 15 16 17 15 13 12 13 12 13 10 9 6 4 4 5 6 5 3 6 7 9 8 9 10 12 21 22 22
14 12 13 14 12 13 22 22 20 15 14 13 14 15 13 11 13 13 15 15 13 12 10 12 11 5 4 3 3 5 4 3 2 4 6 4 8 5 7 10 20 21 23
20 17 15 13 11 14 23 22 17 14 13 12 12 12 11 11 10 12 11 10 8 6 8 11 11 7 6 5 5 4 5 5 2 1 8 4 7 4 5 7 17 20 21
18 17 17 16 17 17 22 22 16 13 12 11 9 9 10 11 13 13 9 10 8 9 13 14 12 11 10 10 10 5 7 7 2 1 6 3 5 6 3 3 8 17 17
18 17 17 18 19 19 24 22 18 13 13 11 9 8 8 11 15 11 9 10 11 6 8 7 7 9 10 10 11 7 4 4 3 1 5 6 4 5 4 2 4 11 10
Wind_Direction
128 124 117 114 105 99 99 99 97 92 85 83 76 77 70 64 71 67 58 58 51 47 45 44 40 37 36 35 29 24 25 23 18 17 15 13 3 2 3 4 356 1 358
135 131 123 113 99 99 99 92 94 94 87 85 76 72 71 68 65 61 52 49 59 55 50 48 45 41 35 29 26 20 20 18 15 17 16 15 12 9 2 1 353 354 344
135 133 125 116 111 111 107 97 97 94 90 86 81 76 73 69 65 61 55 47 39 48 55 50 49 41 38 38 30 27 18 14 13 19 19 18 16 13 8 358 354 343 349
136 129 122 118 122 114 110 107 108 98 92 89 83 72 72 71 70 65 62 57 52 42 43 50 49 44 39 36 30 30 32 29 26 23 22 13 13 7 8 0 356 353 347
136 130 129 128 126 115 114 119 107 112 104 93 86 75 68 67 65 68 63 58 56 52 46 48 48 45 42 39 35 33 31 29 29 29 27 24 19 13 9 5 1 356 347
135 131 128 127 126 119 116 115 114 91 107 108 93 78 70 68 65 60 59 65 60 54 50 54 48 41 41 40 37 33 29 29 29 28 26 22 22 15 12 9 6 3 359
139 137 133 130 129 124 118 116 112 116 108 114 102 85 69 65 65 61 60 60 58 59 51 53 53 38 32 40 35 33 30 26 27 26 25 22 20 17 16 15 10 4 1
143 138 135 128 128 127 123 130 133 127 121 149 134 118 138 84 64 64 64 65 55 41 61 60 51 39 32 29 38 35 31 26 24 24 22 22 19 17 15 16 14 15 8
132 128 129 128 125 132 138 144 147 142 152 82 109 136 145 167 139 69 86 74 60 53 43 36 39 36 30 17 29 34 31 27 25 25 22 20 19 18 17 16 17 16 15
136 135 131 127 124 122 124 137 158 159 145 155 107 73 76 136 153 137 78 99 76 60 53 44 33 29 25 15 18 35 32 29 26 26 24 22 21 19 17 17 19 19 17
135 133 133 125 119 116 119 124 130 146 133 156 152 147 108 86 103 139 156 151 100 69 60 51 40 32 18 15 14 33 33 30 24 23 24 23 20 20 19 19 19 19 18
135 133 129 129 129 123 116 105 99 115 135 136 142 144 149 157 165 144 123 158 142 119 91 63 41 29 22 13 13 29 31 27 27 24 23 24 22 21 19 20 19 19 19
145 143 137 134 130 121 115 111 106 106 115 119 118 106 99 107 134 128 130 153 150 143 124 72 44 33 26 15 8 36 26 24 29 26 25 25 24 22 21 20 21 19 19
151 149 142 134 131 127 121 114 111 111 107 102 99 94 92 79 92 122 139 145 116 125 116 355 46 29 21 13 29 40 24 35 33 32 27 25 26 25 23 22 20 21 19
143 142 139 135 135 128 132 129 120 111 103 101 100 97 93 85 83 86 99 124 140 152 127 33 34 18 7 24 30 30 26 32 34 35 27 27 26 26 24 24 22 21 22
138 143 138 135 137 133 133 127 118 117 113 108 109 103 94 90 85 83 88 93 101 124 130 49 41 10 13 40 30 33 30 34 29 32 32 30 26 25 26 24 23 23 24
146 143 142 137 143 138 130 123 123 126 122 120 117 112 105 103 95 92 88 88 90 98 122 128 66 8 40 35 26 31 35 33 23 35 25 29 26 26 27 26 24 20 23
140 143 140 137 140 138 134 131 130 133 135 133 130 123 123 112 100 95 91 87 86 79 128 130 46 33 44 19 17 37 41 38 29 26 29 24 24 27 28 27 26 21 22
139 140 137 139 140 141 138 129 133 134 131 133 140 137 132 126 117 110 98 95 87 81 86 117 96 37 36 28 8 2 16 19 27 24 27 33 31 29 27 28 26 21 20
148 148 143 148 144 142 137 133 133 129 124 123 125 122 123 127 125 118 109 107 105 96 95 100 86 61 44 5 23 18 5 8 24 18 22 31 33 33 31 27 23 22 17
150 143 141 146 134 144 143 136 138 133 128 120 115 113 116 119 120 119 119 115 109 105 103 93 83 70 47 33 25 348 344 347 338 21 7 26 19 25 18 16 22 18 16
143 145 144 142 141 148 150 148 142 139 135 132 129 130 119 112 113 111 112 111 115 117 108 98 93 85 64 32 2 359 5 14 346 15 8 22 16 27 14 15 26 21 17
139 129 128 130 138 143 149 147 146 135 136 135 129 124 120 127 120 120 116 107 99 93 101 108 101 92 72 38 348 356 356 345 284 331 7 0 5 19 14 11 27 23 21
141 135 138 134 151 160 156 153 145 131 130 128 131 133 134 137 133 125 121 109 96 102 111 96 90 95 86 68 22 356 321 322 255 298 9 13 360 352 340 23 24 24 23
142 150 148 155 164 160 161 156 140 134 132 128 131 131 143 160 159 148 135 124 104 85 115 97 83 75 72 45 32 20 18 6 349 357 19 342 359 330 318 337 25 26 21
148 152 159 165 162 163 166 158 146 142 139 133 132 135 138 164 164 158 146 142 135 119 113 98 71 64 58 51 44 45 354 352 336 323 21 352 356 0 335 311 9 24 14